Location: Cassagne
(43.1218°N, 0.9901°E)
Time: 09:52:58
(UTC+00:00)

NOSS 2-1 (E) - Pass Details

Date: 17 February 2020
Orbit: 450 x 1753 km, 63.3° (Epoch: 29 March)

Event Time Altitude Azimuth Distance (km) Brightness Sun altitude
Exits shadow 05:02:07 28° 351° (N) 924 4.4 -20.7°
Drops below altitude 10° 05:04:29 10° 22° (NNE) 1,731 6.1 -20.2°
Sets 05:06:59 0° 31° (NNE) 2,748 7.4 -19.8°
